Regional Weather Roundup
Issued by NWS

Current Version | Previous Version | Text Only | Print | Product List | Glossary On
Versions: 1 2 3 4 5 6 7 8 9 10 11 12 13 14 15 16 17 18 19 20 21 22 23 24 25 26 27 28 29 30 31 32 33 34 35 36 37 38 39 40 41 42 43 44 45 46 47 48 49 50
000
ASUS43 KDMX 200407
RWRIA

WEATHER ROUNDUP FOR IOWA
NATIONAL WEATHER SERVICE DES MOINES IA
1100 PM CDT SUN OCT 19 2014

NOTE: "FAIR" INDICATES FEW OR NO CLOUDS BELOW 12,000 FEET WITH NO
SIGNIFICANT WEATHER AND/OR OBSTRUCTIONS TO VISIBILITY.

* - THESE STATIONS ARE NOT NWS STATIONS...THUS NOT UNDER NWS
QUALITY CONTROL.  THEY ALSO DO NOT REPORT WEATHER SUCH
AS PRECIPITATION OR FOG.

IAZ001>003-012>014-020>022-031>034-043>046-200500-
   NORTHWEST IOWA

CITY           SKY/WX    TMP DP  RH WIND       PRES   REMARKS
CARROLL *      CLEAR     52  46  82 W9        29.92S
CHEROKEE *       N/A     46  45  93 CALM      29.94R
DENISON *      CLEAR     50  46  87 CALM      29.92R
LE MARS *      MOCLDY    46  43  87 CALM      29.94R
ORANGE CITY *  CLEAR     55  43  62 NW5       29.94R
SHELDON *      CLEAR     45  39  81 NW6       29.93R
STORM LAKE *   CLEAR     54  45  71 W9        29.94R
$$

IAZ055>058-069>071-079>083-090>094-200500-
   SOUTHWEST IOWA

CITY           SKY/WX    TMP DP  RH WIND       PRES   REMARKS
ATLANTIC *     CLEAR     50  46  87 CALM      29.94S
AUDUBON *      CLEAR     54  45  71 W8        29.94S
CLARINDA *     CLEAR     48  45  87 CALM      29.98S
COUNCIL BLFS * CLEAR     57  50  77 SW9       29.94S
CRESTON *      CLEAR     52  46  82 SW7       29.95F
HARLAN  *      CLEAR     48  46  93 CALM      29.97S
RED OAK *      CLEAR     50  46  87 CALM      29.96S
SHENANDOAH *   CLEAR     54  48  82 SW6       29.97S
$$

IAZ047>049-059>061-072>074-084-200500-
   CENTRAL IOWA

CITY           SKY/WX    TMP DP  RH WIND       PRES   REMARKS
ANKENY *       CLEAR     55  46  71 W6        29.91S
CHARITON *     PTCLDY    55  46  71 SW8G14    29.93F
GRINNELL*        N/A     54  45  71 SW8       29.91S
KNOXVILLE *    CLEAR     54  45  71 SW7       29.91S
PELLA *          N/A     54  46  76 SW8       29.92F
PERRY *          N/A     50  46  87 W6        29.91S
$$

IAZ004>006-015-016-023>025-035-036-200500-
   NORTH CENTRAL IOWA

CITY           SKY/WX    TMP DP  RH WIND       PRES   REMARKS
ALGONA *       CLEAR     52  45  76 NW6       29.89F
CLARION *      CLEAR     45  45 100 CALM      29.89S
FOREST CITY *  CLEAR     46  43  87 W3        29.87S
IOWA FALLS *     N/A     54  46  76 SW9       29.89S
$$

IAZ007>011-017>019-026>030-037>042-050>054-066-200500-
   NORTHEAST IOWA

CITY           SKY/WX    TMP DP  RH WIND       PRES   REMARKS
CHARLES CITY * CLEAR     52  46  82 W7        29.86S
DECORAH *      CLEAR     55  46  71 VRB7G14   29.82S
MONTICELLO *   CLEAR     52  45  76 SW6G13    29.87F
OELWEIN *      CLEAR     50  45  81 SW9       29.86F
$$

IAZ064-065-067-068-078-200500-
   EAST CENTRAL IOWA

CITY           SKY/WX    TMP DP  RH WIND       PRES   REMARKS
MT. PLEASANT *   N/A     48  43  81 S7        29.95S
MUSCATINE *    CLEAR     50  43  76 S6        29.93F
$$

IAZ062-063-075>077-085>089-095>099-200500-
   SOUTHEAST IOWA

CITY           SKY/WX    TMP DP  RH WIND       PRES   REMARKS
FAIRFIELD *    CLEAR     52  43  71 SW6       29.93F
FORT MADISON * CLEAR     55  46  71 SW7       29.96F
KEOKUK *       PTCLDY    52  46  82 SW7       29.96S
OSKALOOSA *      N/A     50  45  81 SW7       29.92F
CENTERVILLE *  CLEAR     50  46  87 SW6       29.96F
WASHINGTON *   CLEAR     50  45  81 S9        29.92F
$$

ABBREVIATIONS USED IN REMARKS
   TC - TEMPERATURES IN CELSIUS
  WCI - WIND CHILL INDEX
   HX - HEAT INDEX
  VSB - VISIBILITY
$$




USA.gov is the U.S. government's official web portal to all federal, state and local government web resources and services.